EW7199 Weather Reports


time (UTC)temp
F
wind
direction
speed
knots
gust
knots
rain 1hr
in
rain 24hr
in
rain mn
in
humidity
%
barometer
mb
20260505051408 61 68 1.7 2.6 0.00 0.00 0.00 73 1017.2
20260505050909 61 59 1.7 4.3 0.00 0.00 0.00 73 1017.1
20260505050408 60 50 0.9 2.6 0.00 0.00 0.00 74 1017.1
20260505041407 59 56 1.7 2.6 0.00 0.00 0.00 81 1017.0
20260505040410 59 33 0.9 2.6 0.00 0.00 0.00 81 1016.9
20260505035909 59 45 0.9 2.6 0.00 0.00 0.00 80 1016.9
20260505034908 59 62 0.9 2.6 0.00 0.00 0.00 79 1016.9
20260505034408 59 38 0.9 2.6 0.00 0.00 0.00 79 1016.9
20260505033908 59 36 0.9 2.6 0.00 0.00 0.00 79 1017.0
20260505033408 60 27 0.9 1.7 0.00 0.00 0.00 78 1017.0
20260505032408 60 73 0.0 0.9 0.00 0.00 0.00 78 1017.1
20260505031908 60 73 0.0 0.9 0.00 0.00 0.00 78 1017.0
20260505030908 60 71 0.0 0.9 0.00 0.00 0.00 78 1017.1
20260505025908 60 80 0.9 2.6 0.00 0.00 0.00 79 1017.1
20260505025408 60 288 0.9 1.7 0.00 0.00 0.00 79 1017.2
20260505024908 59 285 0.9 2.6 0.00 0.00 0.00 79 1017.2
20260505024409 59 277 1.7 2.6 0.00 0.00 0.00 80 1017.2
20260505023907 59 313 1.7 2.6 0.00 0.00 0.00 81 1017.2
20260505023409 58 348 0.9 1.7 0.00 0.00 0.00 82 1017.2
20260505022408 58 88 0.0 0.0 0.00 0.00 0.00 81 1017.1
20260505021908 58 88 0.0 0.9 0.00 0.00 0.00 81 1017.1
20260505021408 58 90 0.9 1.7 0.00 0.00 0.00 81 1017.1
20260505020908 58 101 0.0 1.7 0.00 0.00 0.00 80 1017.0
20260505020408 58 103 0.0 1.7 0.00 0.00 0.00 79 1017.0
20260505015908 58 109 0.0 0.9 0.00 0.00 0.00 79 1017.0
20260505015409 59 112 0.9 2.6 0.00 0.00 0.00 79 1017.0
20260505014909 59 102 0.9 2.6 0.00 0.00 0.00 78 1017.0
20260505014409 59 101 0.9 2.6 0.00 0.00 0.00 77 1017.0
20260505013407 59 85 0.0 1.7 0.00 0.00 0.00 76 1016.9
20260505012907 59 101 0.9 2.6 0.00 0.00 0.00 76 1016.9
20260505011908 60 96 1.7 2.6 0.00 0.00 0.00 76 1017.0
20260505011409 60 91 1.7 2.6 0.00 0.00 0.00 76 1017.0
20260505010908 60 99 1.7 2.6 0.00 0.00 0.00 75 1016.9
20260505010409 60 81 0.9 1.7 0.00 0.00 0.00 74 1017.0
20260505005409 59 67 0.9 2.6 0.00 0.00 0.00 73 1017.1
20260505004909 60 75 0.9 2.6 0.00 0.00 0.00 71 1017.0
20260505004409 60 72 0.9 2.6 0.00 0.00 0.00 69 1017.0
20260505003909 61 85 1.7 2.6 0.00 0.00 0.00 69 1017.0
20260505003408 61 65 1.7 5.2 0.00 0.00 0.00 67 1017.0
20260505002909 61 69 1.7 2.6 0.00 0.00 0.00 65 1017.0
20260505002408 61 80 0.9 2.6 0.00 0.00 0.00 64 1016.9
20260505001908 61 57 1.7 2.6 0.00 0.00 0.00 64 1017.0
20260505001408 61 42 1.7 2.6 0.00 0.00 0.00 63 1017.0
20260505000409 62 78 1.7 4.3 0.00 0.00 0.00 63 1017.1
20260504235910 62 59 1.7 4.3 0.00 0.00 0.00 62 1017.1
20260504235409 62 48 1.7 2.6 0.00 0.00 0.00 62 1017.1
20260504234909 62 41 1.7 2.6 0.00 0.00 0.00 62 1017.3
20260504233908 62 51 1.7 4.3 0.00 0.00 0.00 63 1017.4
20260504233407 62 52 0.9 2.6 0.00 0.00 0.00 63 1017.4
20260504232908 62 50 1.7 4.3 0.00 0.00 0.00 63 1017.5
20260504232408 61 69 1.7 2.6 0.00 0.00 0.00 65 1017.6
20260504231407 61 49 1.7 2.6 0.00 0.00 0.00 69 1017.6
20260504230908 61 54 1.7 2.6 0.00 0.00 0.00 69 1017.6
20260504225907 61 61 1.7 4.3 0.00 0.00 0.00 68 1017.7
20260504225408 62 46 1.7 4.3 0.00 0.00 0.00 68 1017.8
20260504224908 62 50 1.7 2.6 0.00 0.00 0.00 67 1017.8
20260504224409 61 43 1.7 2.6 0.00 0.00 0.00 68 1017.9
20260504223907 61 47 1.7 2.6 0.00 0.00 0.00 67 1018.0
20260504223412 61 59 1.7 2.6 0.00 0.00 0.00 68 1018.0
20260504221907 61 56 1.7 2.6 0.00 0.00 0.00 69 1018.0
20260504221407 61 46 1.7 2.6 0.00 0.00 0.00 70 1018.0
20260504220908 61 58 1.7 2.6 0.00 0.00 0.00 70 1018.1
20260504220408 61 50 0.9 2.6 0.00 0.00 0.00 70 1018.1
20260504215907 61 67 1.7 2.6 0.00 0.00 0.00 70 1018.1
20260504215407 61 60 0.9 2.6 0.00 0.00 0.00 71 1018.1
20260504214909 61 52 0.9 2.6 0.00 0.00 0.00 71 1018.1
20260504214410 61 56 0.0 1.7 0.00 0.00 0.00 71 1018.1
20260504213908 61 56 1.7 2.6 0.00 0.00 0.00 71 1018.2
20260504213408 62 81 1.7 2.6 0.00 0.00 0.00 70 1018.1
20260504212908 62 63 0.9 2.6 0.00 0.00 0.00 72 1018.1
20260504212409 63 67 1.7 2.6 0.00 0.00 0.00 73 1018.1
20260504211909 64 71 0.9 2.6 0.00 0.00 0.00 74 1018.0
20260504211408 64 67 0.9 2.6 0.00 0.00 0.00 74 1018.0
20260504210908 65 64 0.9 2.6 0.00 0.00 0.00 74 1018.0
20260504210408 65 104 0.0 0.9 0.00 0.00 0.00 74 1018.1
20260504205908 65 105 0.0 0.9 0.00 0.00 0.00 74 1018.1
20260504205408 65 107 0.0 0.9 0.00 0.00 0.00 73 1018.1
20260504204908 65 109 0.0 0.0 0.00 0.00 0.00 74 1018.1
20260504203409 66 119 0.0 0.0 0.00 0.00 0.00 71 1018.2
20260504202908 66 120 0.0 0.0 0.00 0.00 0.00 69 1018.2
20260504202408 66 120 0.0 0.0 0.00 0.00 0.00 68 1018.2
20260504201908 66 120 0.0 0.0 0.00 0.00 0.00 68 1018.1
20260504201409 66 207 0.0 0.0 0.00 0.00 0.00 66 1018.1
20260504200908 65 207 0.0 0.0 0.00 0.00 0.00 66 1018.1
20260504200409 66 207 0.0 0.0 0.00 0.00 0.00 69 1018.1
20260504195909 66 207 0.0 0.0 0.00 0.00 0.00 68 1018.1
20260504195409 66 207 0.0 0.0 0.00 0.00 0.00 69 1018.1
20260504194908 66 207 0.0 0.0 0.00 0.00 0.00 69 1018.0
20260504194410 66 207 0.0 0.0 0.00 0.00 0.00 68 1017.9
20260504193908 66 207 0.0 0.0 0.00 0.00 0.00 69 1017.9
20260504193408 65 207 0.0 0.0 0.00 0.00 0.00 69 1017.9
20260504192908 65 207 0.0 0.0 0.00 0.00 0.00 68 1017.9
20260504192407 65 205 0.0 0.0 0.00 0.00 0.00 68 1017.9
20260504191408 65 242 0.0 0.0 0.00 0.00 0.00 71 1017.8
20260504190908 65 263 0.0 0.0 0.00 0.00 0.00 72 1017.8
20260504190408 65 268 0.0 0.0 0.00 0.00 0.00 72 1017.8
20260504185908 65 268 0.0 0.0 0.00 0.00 0.00 74 1017.7
20260504185407 65 268 0.9 1.7 0.00 0.00 0.00 74 1017.8
20260504184907 65 270 0.9 2.6 0.00 0.00 0.00 75 1017.7
20260504184410 65 252 0.9 2.6 0.00 0.00 0.00 74 1017.8
20260504183907 65 253 0.0 0.9 0.00 0.00 0.00 75 1017.7
20260504182908 65 251 0.9 1.7 0.00 0.00 0.00 76 1017.6
20260504182409 65 243 1.7 2.6 0.00 0.00 0.00 75 1017.6
20260504181908 65 249 0.9 1.7 0.00 0.00 0.00 75 1017.6
20260504181408 65 251 1.7 2.6 0.00 0.00 0.00 74 1017.6
20260504175907 66 231 0.0 1.7 0.00 0.00 0.00 72 1017.4
20260504175408 66 231 0.0 0.9 0.00 0.00 0.00 72 1017.3
20260504174909 66 232 0.0 0.0 0.00 0.00 0.00 72 1017.2
20260504174409 66 232 0.0 0.0 0.00 0.00 0.00 72 1017.2
20260504173908 66 232 0.0 0.0 0.00 0.00 0.00 73 1017.3
20260504173408 66 232 0.0 0.0 0.00 0.00 0.00 73 1017.2
20260504172907 66 232 0.9 1.7 0.00 0.00 0.00 72 1017.2
20260504172408 66 256 0.9 1.7 0.00 0.00 0.00 71 1017.2
20260504171908 66 282 0.9 2.6 0.00 0.00 0.00 68 1017.1
20260504171409 66 251 0.9 1.7 0.00 0.00 0.00 68 1017.1
20260504170908 67 264 1.7 2.6 0.00 0.00 0.00 67 1017.0
20260504170409 67 243 0.0 1.7 0.00 0.00 0.00 61 1017.0
20260504160408 71 135 0.0 0.0 0.00 0.00 0.00 49 1016.8
20260504150907 72 232 1.7 2.6 0.00 0.00 0.00 45 1017.0
20260504150407 72 210 1.7 2.6 0.00 0.00 0.00 43 1017.0
20260504140907 74 157 0.9 2.6 0.00 0.00 0.00 42 1017.0
20260504140408 73 182 0.9 2.6 0.00 0.00 0.00 42 1017.1
20260504130407 75 249 0.9 2.6 0.00 0.00 0.00 40 1017.3
20260504100407 68 241 1.7 2.6 0.00 0.00 0.00 53 1018.7
20260504081907 64 225 1.7 2.6 0.00 0.00 0.00 58 1019.3
20260504081408 63 232 1.7 2.6 0.00 0.00 0.00 60 1019.3
20260504080406 63 230 1.7 2.6 0.00 0.00 0.00 65 1019.4
20260504070406 61 246 1.7 2.6 0.00 0.00 0.00 65 1019.0